Home > Weather > Pasadena > Past weeks

Flag for USA Past Weather in Pasadena, Texas, USA — Yesterday and Last 2 Weeks

Now
91 °F

Broken clouds.


Feels Like: 103 °F
Forecast: 80 / 94 °F
Wind: 3 mph from Southwest

Location: Houston / Ellington

Current Time: Jul 24, 2016 at 11:35:12 AM

Latest Report: Jul 24, 2016 at 10:50 AM


Visibility: 10 mi

Pressure: 29.99 "Hg

Humidity: 59%

Dew Point: 75 °F

Location of PasadenaLocation

Past Weather in Pasadena — Graph

°F

Pasadena Temperature Yesterday

Maximum temperature yesterday: 95 °F (at 2:50 PM)
Minimum temperature yesterday: 81 °F (at 3:50 AM)
Average temperature yesterday: 87 °F

High & Low Weather Summary for the Past Weeks

 TemperatureHumidityPressure
High97 °F (Jul 13, 3:50 PM)100% (Jul 13, 12:50 PM)30.20 "Hg (Jul 13, 12:50 PM)
Low75 °F (Jul 13, 12:50 PM)36% (Jul 21, 3:50 PM)29.91 "Hg (Jul 23, 6:50 PM)
Average87 °F66%30.05 "Hg
* Reported Jul 9 9:50 AM — Jul 24 9:50 AM, Pasadena, Weather by CustomWeather, © 2016

Note: Actual official high and low records may vary slightly from our data, if they occured in-between our weather recording intervals... More about our weather records

Advertising

Pasadena Weather History for the Previous 24 Hours

Scroll right to see more
 ConditionsComfort  
Time TempWeatherWind HumidityBarometerVisibility
9:50 AM
Sun, Jul 24
88 °FBroken clouds.5 mph66%30.00 "Hg10 mi
8:50 AM84 °FScattered clouds.3 mph74%29.98 "Hg10 mi
7:50 AM81 °FScattered clouds.No wind84%29.98 "Hg10 mi
6:50 AM81 °FPassing clouds.No wind84%29.97 "Hg10 mi
5:50 AM81 °FPassing clouds.No wind84%29.96 "Hg10 mi
4:50 AM82 °FPassing clouds.No wind79%29.95 "Hg10 mi
3:50 AM82 °FPassing clouds.5 mph79%29.94 "Hg10 mi
12:50 AM84 °FPassing clouds.5 mph74%29.96 "Hg10 mi
11:50 PM
Sat, Jul 23
84 °FPassing clouds.No wind70%29.97 "Hg10 mi
10:50 PM84 °FPassing clouds.No wind70%29.97 "Hg10 mi
9:50 PM86 °FPassing clouds.6 mph66%29.94 "Hg10 mi
8:50 PM88 °FScattered clouds.9 mph62%29.92 "Hg10 mi
7:50 PM90 °FScattered clouds.9 mph59%29.91 "Hg10 mi
6:50 PM93 °FScattered clouds.10 mph53%29.91 "Hg10 mi
5:50 PM95 °FBroken clouds.12 mph50%29.92 "Hg10 mi
4:50 PM95 °FBroken clouds.10 mph47%29.94 "Hg10 mi
3:50 PM91 °FBroken clouds.12 mph52%29.96 "Hg10 mi
2:50 PM95 °FPartly sunny.12 mph47%29.96 "Hg10 mi
1:50 PM93 °FPartly sunny.8 mph56%29.98 "Hg10 mi
12:50 PM93 °FPartly sunny.No wind56%30.00 "Hg10 mi
11:50 AM90 °FScattered clouds.No wind63%30.01 "Hg10 mi
Weather by CustomWeather, © 2016

See weather overviewHow to use our weather pages